OneWeb SL0024

operational
NORAD ID: 45137 Int'l Des: 2020-008 Owner: ONEWEB Country: UK Constellation: oneweb
LEOCIRCULARPOLARONEWEB_TYPE

Über OneWeb SL0024

Beschreibung wird geladen...

Live-Position

3D-Globus wird geladen...

Nächste Überflüge

Höhenverlauf

Altitude vs Time

uPlot chart will show altitude changes over time

Zweizeiliger Elementsatz

1 45137U 20008G 25351.77183934 .00000302 00000-0 82748-3 0 9995
2 45137 87.8827 72.4086 0001719 103.1576 256.9743 13.10369917284482
Epoch: 17. Dez. 2025 • Age: 13 hours

Aktueller Status

Höhe 1231.4 km
Geschwindigkeit 7.24 km/s
Subsatellitenpunkt -23.98°S, 124.25°W
Startdatum 6. Feb. 2020
Alter 5.8 years
Typ internet

Technische Details

Klassifizierung Payload
Masse 148.00 kg
Trockenmasse 140.00 kg
Gesamtmasse 148.00 kg
Länge 1.30 m
Durchmesser 1.00 m
Spannweite 5.00 m
Form Trapezoid+2 pan
Hersteller ONEWUS
Bus-Typ ARROW
Phasenstatus In Orbit
Besitzer/Staat ONEWEB/UK

Große Konstellationen

Loading constellations...